AirNav   Everest Fuels
 
 1109 users online  

KFLY Meadow Lake Airport
Colorado Springs, Colorado, USA

GOING TO COLORADO SPRINGS?


FAA INFORMATION EFFECTIVE 31 DECEMBER 2020

Location

FAA Identifier: FLY
Lat/Long: 38-56-33.9320N 104-34-11.7440W
38-56.565533N 104-34.195733W
38.9427589,-104.5699289
(estimated)
Elevation: 6877.6 ft. / 2096.3 m (surveyed)
Variation: 11E (1985)
From city: 14 miles NE of COLORADO SPRINGS, CO
Time zone: UTC -7 (UTC -6 during Daylight Saving Time)
Zip code: 80831

Airport Operations

Airport use: Open to the public
Activation date: 11/1967
Control tower: no
ARTCC: DENVER CENTER
FSS: DENVER FLIGHT SERVICE STATION
NOTAMs facility: DEN (NOTAM-D service available)
Attendance: 0800-1700
Wind indicator: lighted
Segmented circle: yes
Lights: ACTVT PAPI RWY 15 & 33; MIRL RWY 15/33 - CTAF.
Beacon: white-green (lighted land airport)
Operates sunset to sunrise.

Airport Communications

CTAF/UNICOM: 122.7
WX AWOS-3PT: 118.450 (719-683-5371)
WX ASOS at COS (10 nm SW): PHONE 719-380-6748
WX ASOS at CO90 (17 nm SE): 125.0 (719-637-9696)
WX AWOS-3 at FCS (18 nm SW): 125.0 (719-637-9696)

Nearby radio navigation aids

VOR radial/distance  VOR name  Freq  Var
BRKr084/3.0BLACK FOREST VOR/DME112.5008E
FCSr017/18.0BUTTS VOR/DME108.8012E
PUBr342/39.5PUEBLO VORTAC116.7008E

 
NDB name  Hdg/Dist  Freq  Var  ID
IRONHORSE020/18.033508EIHS .. .... ...

Airport Services

Fuel available: 100LL
Parking: hangars and tiedowns
Airframe service: MAJOR
Powerplant service: MAJOR
Bottled oxygen: NONE
Bulk oxygen: LOW

Runway Information

Runway 15/33

Dimensions: 6000 x 60 ft. / 1829 x 18 m
Surface: asphalt, in excellent condition
Weight bearing capacity: 
Single wheel: 12.5
Runway edge lights: medium intensity
RUNWAY 15  RUNWAY 33
Latitude: 38-57.208218N38-56.277243N
Longitude: 104-34.476687W104-34.053582W
Elevation: 6873.6 ft.6787.2 ft.
Traffic pattern: leftright
Runway heading: 149 magnetic, 160 true329 magnetic, 340 true
Markings: nonprecision, in poor conditionnonprecision, in poor condition
Visual slope indicator: 2-light PAPI on left (3.50 degrees glide path)2-light PAPI on left (3.00 degrees glide path)
Touchdown point: yes, no lightsyes, no lights
Obstructions: 20 ft. road, 550 ft. from runway, 17:1 slope to clearnone

Runway 8/26

Dimensions: 2074 x 35 ft. / 632 x 11 m
RWY 08/26 1149 FT GRVL ON E END OF RWY, 925 FT ASPH ON W END OF RWY.
Surface: asphalt/gravel, in fair condition
RUNWAY 8  RUNWAY 26
Latitude: 38-56.756917N38-56.750298N
Longitude: 104-34.227943W104-33.790507W
Elevation: 6820.3 ft.6772.0 ft.
Traffic pattern: rightleft
Runway heading: 080 magnetic, 091 true260 magnetic, 271 true
Markings: none, in good conditionnone, in good condition
Touchdown point: yes, no lightsyes, no lights
Obstructions: 49 ft. pline, marked, 1460 ft. from runway, 25:1 slope to clear10 ft. road

Runway 15G/33G

Dimensions: 5000 x 200 ft. / 1524 x 61 m
Surface: turf, in fair condition
RUNWAY 15G  RUNWAY 33G
Latitude: 38-56.663012N38-55.886915N
Longitude: 104-34.366337W104-34.013515W
Elevation: 6833.4 ft.6776.6 ft.
Traffic pattern: leftleft
Runway heading: 149 magnetic, 160 true329 magnetic, 340 true
Markings: none, in good conditionnone
Touchdown point: yes, no lightsyes, no lights

Airport Ownership and Management from official FAA records

Ownership: Privately-owned
Owner: MEADOW LAKE AIRPORT ASSOC., INC.
13625 JUDGE ORR ROAD
PEYTON, CO 80831
Phone 719-339-0928
DAVE ELLIOTT ASSOCIATION PRESIDENT.
Manager: DAVE ELLIOTT
13625 JUDGE ORR ROAD
PEYTON, CO 80831
Phone 719-339-0928
ALTN PHONE IS MIKE BARR AT (719) 287-4204

Airport Operational Statistics

Aircraft based on the field: 376
Single engine airplanes: 323
Multi engine airplanes: 18
Jet airplanes: 1
Helicopters: 9
Gliders airplanes: 18
Ultralights: 7
    
Aircraft operations: avg 185/day *
51% local general aviation
30% military
19% transient general aviation
* for 12-month period ending 31 December 2018

Additional Remarks

BE ALERT; INTENSIVE USAF STUDENT TRAINING IN VICINITY OF COLORADO SPRINGS & PUEBLO COLORADO.
RWY 26 HAS PLUS-15 FT ROAD EXTENDING EAST FROM THLD.
PWRD PARAGLIDERS AND MOBILE AEROSTATS OPERATE SE SIDE OF ARPT SURF-500'
RWY 15G/33G HAS EDGES AND THLDS MKD WITH WHITE TIRES.
FOR CD CTC COLORADO SPRINGS APCH AT 719-556-9105.
RWY 08/26 EDGES MKD WITH WHITE REFLECTORS AND TIRES.
GLIDERS OPERATE ON 15G/33G AND WEST SIDE OF ARPT.
RY 26 HAS -4FT TERRAIN 5FT FROM RY EDGE FIRST 100FT ON BOTH SIDES OF RY.
WILDLIFE ON AND INVOF OF AIRPORT
RWY 26 PLUS-4 FT FENCE 50 FT RIGHT OF CNTRLN 95 FT FROM THLD.

Instrument Procedures

There are no published instrument procedures at KFLY.

Some nearby airports with instrument procedures:

KCOS - City of Colorado Springs Municipal Airport (10 nm SW)
KPUB - Pueblo Memorial Airport (39 nm S)
1V6 - Fremont County Airport (40 nm SW)
KAPA - Centennial Airport (40 nm N)
KBKF - Buckley Air Force Base (46 nm N)
 
Loc | Ops | Rwys | IFR | FBO | Links
Com | Nav | Svcs | Stats | Notes

AirBoss

 
Area around KFLY (Meadow Lake Airport)
 
Road maps at: MapQuest Bing Google
 
Aerial photo
WARNING: Photo may not be current or correct
Aerial photo of KFLY (Meadow Lake Airport)
Photo by Mitch Bowers
WWW.IMAGEWERX.US
Photo taken 16-May-2018
looking northwest.

Do you have a better or more recent aerial photo of Meadow Lake Airport that you would like to share? If so, please send us your photo.

 
Sectional chart

 
Airport distance calculator
Flying to Meadow Lake Airport? Find the distance to fly.

From to KFLY

Sunrise and sunset
Times for 17-Jan-2021
 Local
(UTC-7)
 Zulu
(UTC)
Morning civil twilight06:4713:47
Sunrise07:1614:16
Sunset17:0100:01
Evening civil twilight17:3000:30

Current date and time
Zulu (UTC)  17-Jan-2021 22:28:01
Local (UTC-7)  17-Jan-2021 15:28:01
 
METAR
KFLY 172215Z AUTO 21006KT 10SM CLR 03/M11 A2997 RMK AO2 T00301106
KCOS 
10nm SW 
172154Z 18006KT 10SM SCT120 BKN180 04/M08 A2996 RMK AO2 SLP166 T00441083
KAFF 
12nm W 
172158Z AUTO 17006KT 10SM CLR 05/M10 A2993 RMK AO2 SLP147 T00461099
KMNH 
17nm N 
172215Z AUTO 35003KT 10SM BKN085 06/M12 A2994 RMK AO2
KABH 
17nm SE 
172058Z AUTO 22009KT 10SM FEW240 03/M09 A2999 RMK AO2 SLP188 T00321088 57029
KFCS 
19nm SW 
172158Z AUTO 17009KT 10SM CLR 05/M09 A2995 RMK AO2 SLP181 T00501092 $
TAF
KCOS 
10nm SW 
171720Z 1718/1818 15007KT P6SM SCT100 BKN200 FM180100 14006KT P6SM SCT200 FM180500 35008KT P6SM BKN200
KFCS 
19nm SW 
171304Z 1713/1819 18009KT 9999 SCT060 QNH3007INS BECMG 1717/1718 20009KT 9999 SKC QNH2982INS TEMPO 1718/1722 30012G18KT BECMG 1811/1812 33009KT 9999 BKN050 620509 QNH2986INS BECMG 1814/1815 27009KT 8000 -RA BKN030 620309 QNH2996INS TX08/1721Z TNM06/1713Z
NOTAMs
Click for the latest NOTAMs
NOTAMs are issued by the DoD/FAA and will open in a separate window not controlled by AirNav.

 

 
 

FBO, Fuel Providers, and Aircraft Ground Support

  
 Business Name 
 
 Contact 
 
 Services / Description 
 
Fuel Prices
 
Comments
  
Phantom Fuel, LLC 719-683-2202
[email]
Aviation fuel

More info about Phantom Fuel, LLC
Phillips 66
100LL
SS $3.96 
 Updated 16-Jan-2021
 
   write
American Aviation 719-683-2547
no information available

If you are affiliated with American Aviation and would like to show here your services, contact info, web link, logo, and more, click here
100LL
SS $4.02 
 Updated 11-Dec-2020
 
   1 read write
SS=Self service
Update Fuel Prices
 

Would you like to see your business listed on this page?

 If your business provides an interesting product or service to pilots, flight crews, aircraft, or users of the Meadow Lake Airport, you should consider listing it here.  To start the listing process, click on the button below
 
Add a business
 

Other Pages about Meadow Lake Airport

www.KFLY.org
www.cosairports.com
 
Update a link
 
Copyright © AirNav, LLC. All rights reserved. Privacy Policy  Contact